{"data":{"norad_id":59516,"intl_designator":"2024-073F","name":"STARLINK-31671","alt_names":[],"object_type":"PAYLOAD","status":"ACTIVE","operator":null,"country":"US","launch_date":"2024-04-17","launch_site_code":"AFETR","launch_vehicle":null,"mission":null,"orbit_class":"UNKNOWN","rcs_meters":null,"size_class":null,"mass_kg":null,"dimensions":null,"purposes":["comms"],"wikipedia_slug":null,"has_3d_model":false,"image_url":null,"decayed_at":null,"tle_current":{"epoch":"2026-05-25T00:00:27.921024Z","epoch_age_seconds":71061,"freshness":"FRESH","line1":"1 59516U 24073F   26145.00032316  .00006206  00000+0  23472-3 0  9999","line2":"2 59516  43.0016 247.2893 0001547 276.2063  83.8613 15.27601325117842","mean_motion":15.27601325,"eccentricity":0.0001547,"inclination_deg":43.0016,"raan_deg":247.2893,"arg_perigee_deg":276.2063,"mean_anomaly_deg":83.8613,"bstar":0.00023472,"rev_number":11784,"period_min":94.265432769247,"perigee_km":481.92382645001,"apogee_km":484.0466576717,"semimajor_km":6861.1222420609,"source":"CELESTRAK","updated_at":"2026-05-25T13:38:18.974712Z"}}}